sat.trackr.live / text

‹ back to catalog

STARLINK-11724 [DTC]

NORAD 64124 · 2025-111B

PAYLOAD ACTIVE UNKNOWN

§ Identity

Operator
Country
US
Launch date
2025-05-24
Launch site
AFETR
Launch vehicle
Mass (kg)
RCS (m²)

Purposes: comms

External: N2YO · Heavens-Above · Gunter

§ Orbital elements

Epoch: 2026-09-20T23:21:40.941792Z

Period
91.67 min
Inclination
43.0000°
Eccentricity
0.0001448
Mean motion
15.70860561 rev/d
Perigee alt
355.5 km
Apogee alt
357.4 km
Semi-major
6,734.6 km
B*
8.6559e-4
RAAN
236.6151°
Arg perigee
266.2966°
Mean anomaly
93.7736°
Rev number
7,735

§ Raw data

STARLINK-11724 [DTC]1 64124U 25111B   26263.97339053  .00112226  00000+0  86559-3 0  99942 64124  43.0000 236.6151 0001448 266.2966  93.7736 15.70860561 77350

JSON: /api/v1/satellites/64124 · /tle

For live sub-satellite position, see the globe view (requires WebGL).

§ Visibility from observer

Set your observer location to see the next 7 days of passes ≥ 10°. The values pass through the URL so the page stays shareable.

No JS? Fill the form by hand. The geolocation button needs JavaScript.